xiaot.com alexa rank chart, xiaot.com alexa rank daily changes

xiaot.com alexa rank chart, xiaot.com alexa rank daily changes

xiaot.com
Actual rank:
61 499

RANK HISTORY

Date Rank Diff
2017/10/21 61 499 +702
2017/10/20 60 797 +2 126
2017/10/19 58 671 -660
2017/10/18 59 331 +2 009
2017/10/17 57 322 +3 537
2017/10/16 53 785 -261
2017/10/14 54 046 +83
2017/10/13 53 963 -881
2017/10/12 54 844 +2 329
2017/10/11 52 515 +483
2017/10/10 52 032 +885
2017/10/09 51 147 +465
2017/10/08 50 682 +1 156
2017/10/07 49 526 +197
2017/10/06 49 329 +1 718
2017/10/05 47 611 -252
2017/10/04 47 863 +2 335
2017/10/03 45 528 -367
2017/10/02 45 895 +151
2017/10/01 45 744 -2 383
2017/09/30 48 127 -2 849
2017/09/29 50 976 +605
2017/09/28 50 371 -156
2017/09/27 50 527 -4
2017/09/26 50 531 +372
2017/09/25 50 159 +1 474
2017/09/24 48 685 -732
2017/09/23 49 417 +3 769
2017/09/22 45 648 +255
2017/09/20 45 393 -171
2017/09/19 45 564 -142
2017/09/18 45 706 +907
2017/09/17 44 799 -568
2017/09/16 45 367 +326
2017/09/15 45 041 +929
2017/09/14 44 112 +1 794
2017/09/13 42 318 +1 323
2017/09/12 40 995 -1 294
2017/09/11 42 289 +383
2017/09/10 41 906 +177
2017/09/09 41 729 +245
2017/09/08 41 484 -709
2017/09/07 42 193 +996
2017/09/06 41 197 -285
2017/09/05 41 482 +50
2017/09/04 41 432 -1 581
2017/09/03 43 013 +36
2017/09/02 42 977 -9
2017/09/01 42 986 +1 725
2017/08/31 41 261 +762
2017/08/30 40 499 +125
2017/08/29 40 374 +1 053
2017/08/28 39 321 +371
2017/08/27 38 950 -760
2017/08/26 39 710 -7
2017/08/25 39 717 -569
2017/08/24 40 286 -252
2017/08/23 40 538 -203
2017/08/22 40 741

WIDGET FOR YOUR SITE

DOMAINS WITH THE NEAREST RANK

Domain Rank
onlinepayment.com.my 61 494
enlaradio.com.ar 61 495
bpm-power.com 61 496
royalgazette.com 61 497
minecraft-statistic.net 61 498
xiaot.com 61 499
windstream.com 61 500
imadrassa.com 61 501
isptec.co.ao 61 502
mesmerizingwords.com 61 503
hayatbilgileri.com 61 504

DOMAINS WITH THE NEAREST RANK BY TLD .com

Domain Rank
orangemali.com 61 487
chinesehighway.com 61 491
bestialitysextaboo.com 61 492
bpm-power.com 61 496
royalgazette.com 61 497
xiaot.com 61 499
windstream.com 61 500
imadrassa.com 61 501
mesmerizingwords.com 61 503
hayatbilgileri.com 61 504
ipv6daohang.com 61 506